Location: Unspecified
(0.0000°N, 0.0000°E)
Time: 12:37:54
(UTC+01:00)

SeaSat 1 - Visible Passes

Search period start: 25 March 2017 00:00
Search period end: 04 April 2017 01:00
Orbit: 745 x 748 km, 108.0° (Epoch: 23 March)

Date Brightness Start Highest point End Pass type
(mag) Time Alt. Az. Time Alt. Az. Time Alt. Az.
25 Mar 3.8 21:03:34 29° NNW 21:03:34 29° NNW 21:05:54 10° NNW visible
26 Mar 4.2 21:21:10 16° NE 21:21:10 16° NE 21:22:46 10° NNE visible
27 Mar 4.7 22:18:32 16° NNW 22:18:32 16° NNW 22:19:29 10° NNW visible
28 Mar 4.6 21:36:02 12° NNE 21:36:02 12° NNE 21:36:35 10° NNE visible
